EW0597 Weather Reports


Display with metric or nautical units.
time (UTC)temp
F
wind
direction
speed
MPH
gust
MPH
rain 1hr
in
rain 24hr
in
rain mn
in
humidity
%
barometer
mb
20260503183046 62 325 3.0 11.0 0.00 0.00 0.00 68 1012.8
20260503181607 63 246 2.0 11.0 0.00 0.00 0.00 66 1012.9
20260503180051 62 303 3.0 11.0 0.00 0.00 0.00 67 1012.9
20260503174545 62 193 1.0 11.0 0.00 0.00 0.00 69 1012.8
20260503173043 60 219 1.0 10.0 0.00 0.00 0.00 71 1012.9
20260503171528 59 193 3.0 11.0 0.00 0.00 0.00 75 1013.0
20260503081542 55 263 1.0 4.0 0.00 0.00 0.00 83 1012.0
20260503071536 55 244 0.0 2.0 0.00 0.00 0.00 82 1012.0
20260503054528 55 242 0.0 1.0 0.00 0.00 0.00 82 1012.3
20260503053027 55 333 0.0 1.0 0.00 0.00 0.00 81 1012.3
20260503051534 55 344 0.0 3.0 0.00 0.00 0.00 81 1012.4
20260503050025 56 271 0.0 5.0 0.00 0.00 0.00 80 1012.4
20260503044527 56 319 0.0 4.0 0.00 0.00 0.00 80 1012.3
20260503043024 56 336 0.0 7.0 0.00 0.00 0.00 79 1012.2
20260503041524 56 300 1.0 4.0 0.00 0.00 0.00 79 1012.0
20260503040023 56 305 0.0 9.0 0.00 0.00 0.00 79 1011.8
20260503034522 57 300 0.0 4.0 0.00 0.00 0.00 78 1011.7
20260503033033 57 317 0.0 3.0 0.00 0.00 0.00 78 1011.5
20260503031521 58 269 0.0 3.0 0.00 0.00 0.00 77 1011.4
20260503030040 58 5 0.0 2.0 0.00 0.00 0.00 76 1011.2
20260503024529 59 262 0.0 2.0 0.00 0.00 0.00 76 1010.9
20260503023019 59 241 0.0 3.0 0.00 0.00 0.00 76 1010.8
20260503021525 60 274 0.0 4.0 0.00 0.00 0.00 75 1010.7
20260503020007 60 294 1.0 6.0 0.00 0.00 0.00 74 1010.7
20260503014506 61 229 0.0 7.0 0.00 0.00 0.00 74 1010.8
20260503013006 62 278 0.0 7.0 0.00 0.00 0.00 73 1010.7
20260503011605 63 278 1.0 9.0 0.00 0.00 0.00 72 1010.7
20260503010004 63 211 0.0 8.0 0.00 0.00 0.00 71 1010.7
20260503004503 64 266 2.0 10.0 0.00 0.00 0.00 70 1010.7
20260503003002 64 278 2.0 10.0 0.00 0.00 0.00 69 1010.7
20260503001501 64 277 3.0 10.0 0.00 0.00 0.00 70 1010.9
20260503000100 64 286 1.0 8.0 0.00 0.00 0.00 70 1010.8
20260502234559 64 261 2.0 9.0 0.00 0.00 0.00 70 1010.9
20260502233058 65 255 1.0 8.0 0.00 0.00 0.00 69 1011.0
20260502231605 65 268 1.0 11.0 0.00 0.00 0.00 69 1011.1
20260502230054 65 302 1.0 6.0 0.00 0.00 0.00 70 1011.3
20260502224552 65 291 2.0 6.0 0.00 0.00 0.00 70 1011.5
20260502223050 65 207 2.0 9.0 0.00 0.00 0.00 68 1011.7
20260502221549 66 226 3.0 12.0 0.00 0.00 0.00 68 1012.1
20260502220046 66 271 1.0 9.0 0.00 0.00 0.00 70 1012.1
20260502214552 66 248 1.0 6.0 0.00 0.00 0.00 69 1012.3
20260502213046 67 15 2.0 9.0 0.00 0.00 0.00 68 1012.3
20260502211542 66 230 1.0 8.0 0.00 0.00 0.00 69 1012.6
20260502210037 66 271 2.0 9.0 0.00 0.00 0.00 68 1012.8
20260502204534 65 212 4.0 10.0 0.00 0.00 0.00 70 1013.0
20260502203031 64 205 1.0 12.0 0.00 0.00 0.00 73 1013.2
20260502201531 63 219 3.0 11.0 0.00 0.00 0.00 73 1013.4
20260502200023 62 212 0.0 8.0 0.00 0.00 0.00 77 1013.6
20260502194522 61 217 3.0 17.0 0.00 0.00 0.00 76 1013.7
20260502193021 62 307 1.0 11.0 0.00 0.00 0.00 75 1013.9
20260502191522 61 235 3.0 16.0 0.00 0.00 0.00 75 1013.9
20260502190021 61 277 5.0 14.0 0.00 0.00 0.00 75 1014.0
20260502184524 61 301 4.0 14.0 0.00 0.00 0.00 76 1014.0